| time (UTC) | temp F | wind direction | speed knots | gust knots | rain 1hr in | rain 24hr in | rain mn in | humidity % | barometer mb |
| 20260504173041 | 72 | 300 | 1.7 | 4.3 | 0.00 | 0.00 | 0.00 | 31 | 1003.4 |
| 20260504171548 | 71 | 98 | 0.9 | 3.5 | 0.00 | 0.00 | 0.00 | 35 | 1003.3 |
| 20260504090104 | 54 | 0 | 0.0 | 0.9 | 0.00 | 0.00 | 0.00 | 55 | 1002.8 |
| 20260504081541 | 54 | 0 | 0.0 | 0.9 | 0.00 | 0.00 | 0.00 | 57 | 1003.2 |
| 20260504044540 | 60 | 0 | 0.0 | 0.9 | 0.00 | 0.00 | 0.00 | 46 | 1005.7 |
| 20260504043050 | 60 | 0 | 0.0 | 0.0 | 0.00 | 0.00 | 0.00 | 46 | 1005.8 |
| 20260504041541 | 60 | 0 | 0.0 | 0.0 | 0.00 | 0.00 | 0.00 | 45 | 1006.1 |
| 20260504040042 | 61 | 0 | 0.0 | 0.0 | 0.00 | 0.00 | 0.00 | 44 | 1006.4 |
| 20260504034536 | 62 | 0 | 0.0 | 0.0 | 0.00 | 0.00 | 0.00 | 43 | 1006.5 |
| 20260504033037 | 62 | 0 | 0.0 | 0.9 | 0.00 | 0.00 | 0.00 | 42 | 1006.7 |
| 20260504031542 | 63 | 0 | 0.0 | 0.9 | 0.00 | 0.00 | 0.00 | 42 | 1006.7 |
| 20260504030044 | 63 | 0 | 0.0 | 0.0 | 0.00 | 0.00 | 0.00 | 40 | 1006.8 |
| 20260504024537 | 63 | 0 | 0.0 | 0.0 | 0.00 | 0.00 | 0.00 | 39 | 1006.9 |
| 20260504023037 | 63 | 0 | 0.0 | 0.0 | 0.00 | 0.00 | 0.00 | 40 | 1006.8 |
| 20260504021535 | 64 | 0 | 0.0 | 0.0 | 0.00 | 0.00 | 0.00 | 39 | 1006.9 |
| 20260504020034 | 65 | 0 | 0.0 | 0.0 | 0.00 | 0.00 | 0.00 | 38 | 1006.9 |
| 20260504014546 | 66 | 0 | 0.0 | 0.0 | 0.00 | 0.00 | 0.00 | 36 | 1006.9 |
| 20260504013051 | 67 | 0 | 0.0 | 0.0 | 0.00 | 0.00 | 0.00 | 35 | 1006.9 |
| 20260504011539 | 69 | 0 | 0.0 | 0.9 | 0.00 | 0.00 | 0.00 | 34 | 1006.9 |
| 20260504010039 | 70 | 0 | 0.0 | 0.9 | 0.00 | 0.00 | 0.00 | 32 | 1007.1 |
| 20260504004555 | 71 | 264 | 0.0 | 4.3 | 0.00 | 0.00 | 0.00 | 31 | 1007.4 |
| 20260504003042 | 71 | 275 | 0.9 | 2.6 | 0.00 | 0.00 | 0.00 | 31 | 1007.5 |
| 20260504001541 | 72 | 325 | 0.0 | 2.6 | 0.00 | 0.00 | 0.00 | 31 | 1007.6 |
| 20260504000043 | 72 | 290 | 1.7 | 3.5 | 0.00 | 0.00 | 0.00 | 29 | 1007.7 |
| 20260503234535 | 72 | 302 | 2.6 | 5.2 | 0.00 | 0.00 | 0.00 | 29 | 1007.8 |
| 20260503233047 | 72 | 309 | 0.9 | 2.6 | 0.00 | 0.00 | 0.00 | 27 | 1007.9 |
| 20260503231542 | 73 | 321 | 0.9 | 5.2 | 0.00 | 0.00 | 0.00 | 28 | 1008.1 |
| 20260503230041 | 73 | 299 | 1.7 | 7.8 | 0.00 | 0.00 | 0.00 | 28 | 1008.1 |
| 20260503224541 | 74 | 285 | 1.7 | 4.3 | 0.00 | 0.00 | 0.00 | 27 | 1008.3 |
| 20260503223037 | 73 | 321 | 1.7 | 8.7 | 0.00 | 0.00 | 0.00 | 28 | 1008.4 |
| 20260503221537 | 74 | 314 | 1.7 | 5.2 | 0.00 | 0.00 | 0.00 | 28 | 1008.2 |
| 20260503220048 | 75 | 226 | 2.6 | 4.3 | 0.00 | 0.00 | 0.00 | 26 | 1008.4 |
| 20260503214543 | 75 | 243 | 2.6 | 5.2 | 0.00 | 0.00 | 0.00 | 27 | 1008.5 |
| 20260503213040 | 75 | 250 | 0.9 | 7.8 | 0.00 | 0.00 | 0.00 | 28 | 1008.6 |
| 20260503211539 | 75 | 255 | 0.9 | 1.7 | 0.00 | 0.00 | 0.00 | 30 | 1008.9 |
| 20260503210047 | 74 | 299 | 1.7 | 3.5 | 0.00 | 0.00 | 0.00 | 27 | 1009.1 |
| 20260503204542 | 75 | 311 | 0.9 | 3.5 | 0.00 | 0.00 | 0.00 | 30 | 1009.2 |
| 20260503203049 | 75 | 257 | 0.9 | 3.5 | 0.00 | 0.00 | 0.00 | 27 | 1009.6 |
| 20260503201545 | 74 | 14 | 1.7 | 4.3 | 0.00 | 0.00 | 0.00 | 29 | 1009.7 |
| 20260503200040 | 74 | 265 | 1.7 | 5.2 | 0.00 | 0.00 | 0.00 | 29 | 1009.8 |
| 20260503194535 | 74 | 330 | 0.9 | 3.5 | 0.00 | 0.00 | 0.00 | 31 | 1009.9 |
| 20260503193040 | 75 | 255 | 0.9 | 3.5 | 0.00 | 0.00 | 0.00 | 29 | 1009.9 |
| 20260503191543 | 75 | 300 | 1.7 | 4.3 | 0.00 | 0.00 | 0.00 | 31 | 1010.1 |
| 20260503190044 | 74 | 71 | 0.9 | 3.5 | 0.00 | 0.00 | 0.00 | 30 | 1010.2 |
| 20260503184542 | 74 | 355 | 0.9 | 3.5 | 0.00 | 0.00 | 0.00 | 30 | 1010.4 |
| 20260503183044 | 73 | 259 | 1.7 | 3.5 | 0.00 | 0.00 | 0.00 | 29 | 1010.5 |
| 20260503181542 | 72 | 306 | 0.9 | 2.6 | 0.00 | 0.00 | 0.00 | 32 | 1010.8 |
| 20260503180054 | 73 | 323 | 0.9 | 4.3 | 0.00 | 0.00 | 0.00 | 34 | 1011.0 |
| 20260503174545 | 73 | 10 | 0.9 | 2.6 | 0.00 | 0.00 | 0.00 | 31 | 1011.2 |